DJ3OW-13 Weather Reports


Display with metric or nautical units.
time (UTC)temp
F
wind
direction
speed
MPH
gust
MPH
rain 1hr
in
rain 24hr
in
rain mn
in
humidity
%
barometer
mb
20260508175055 52 90 0.0 4.0 0.00 0.00 0.00 84 1021.5
20260508174053 52 113 0.0 2.0 0.00 0.00 0.00 84 1021.5
20260508173051 52 109 1.0 2.0 0.00 0.00 0.00 83 1021.5
20260508172049 52 0.0 2.0 0.00 0.00 0.00 83 1021.5
20260508171047 52 113 0.0 2.0 0.00 0.00 0.00 82 1021.5
20260508170045 52 113 0.0 2.0 0.00 0.00 0.00 81 1021.4
20260508165043 52 0.0 2.0 0.00 0.00 0.00 81 1021.4
20260508164041 52 0.0 2.0 0.00 0.00 0.00 82 1021.5
20260508163059 53 0.0 0.0 0.00 0.00 0.00 80 1021.4
20260508162037 52 0.0 0.0 0.00 0.00 0.00 81 1021.4
20260508161035 53 113 0.0 2.0 0.00 0.00 0.00 81 1021.5
20260508160033 53 0.0 0.0 0.00 0.00 0.00 80 1021.6
20260508155031 52 113 1.0 2.0 0.00 0.00 0.00 79 1021.5
20260508154029 53 128 0.0 4.0 0.00 0.00 0.00 79 1021.5
20260508153027 53 113 0.0 2.0 0.00 0.00 0.00 78 1021.5
20260508152025 53 105 2.0 4.0 0.00 0.00 0.00 78 1021.6
20260508151023 53 115 1.0 4.0 0.00 0.01 0.00 78 1021.6
20260508150021 53 105 2.0 4.0 0.00 0.01 0.00 77 1021.6
20260508145019 53 90 1.0 4.0 0.00 0.01 0.00 78 1021.5
20260508144017 53 108 1.0 4.0 0.00 0.01 0.00 77 1021.6
20260508143015 53 84 1.0 4.0 0.00 0.01 0.00 76 1021.5
20260508142133 54 0.0 2.0 0.00 0.01 0.00 78 1021.7
20260508141111 53 85 1.0 4.0 0.00 0.01 0.00 77 1021.7
20260508140109 54 101 0.0 2.0 0.00 0.01 0.00 78 1021.7
20260508135107 53 90 1.0 2.0 0.00 0.01 0.00 79 1021.6
20260508134105 53 105 2.0 4.0 0.00 0.01 0.00 79 1021.6
20260508133122 53 107 1.0 4.0 0.00 0.01 0.00 80 1021.6
20260508132100 53 113 1.0 4.0 0.00 0.01 0.00 80 1021.7
20260508131059 53 100 1.0 2.0 0.00 0.01 0.00 81 1021.7
20260508130117 53 0.0 2.0 0.00 0.01 0.00 81 1021.8
20260508125115 53 93 1.0 4.0 0.00 0.01 0.00 78 1021.9
20260508124052 53 73 0.0 4.0 0.00 0.01 0.00 81 1022.0
20260508123050 53 68 0.0 2.0 0.00 0.01 0.00 82 1021.9
20260508122109 53 90 1.0 2.0 0.00 0.01 0.00 80 1021.8
20260508121046 53 68 1.0 4.0 0.00 0.01 0.00 80 1021.8
20260508120045 53 0.0 2.0 0.00 0.01 0.00 81 1021.8
20260508115042 53 0.0 2.0 0.00 0.01 0.00 81 1021.9
20260508114040 52 113 0.0 2.0 0.00 0.01 0.00 80 1021.9
20260508113038 53 113 0.0 2.0 0.00 0.01 0.00 81 1021.9
20260508112036 52 0.0 2.0 0.00 0.01 0.00 82 1021.9
20260508111034 52 90 0.0 2.0 0.00 0.01 0.00 82 1021.9
20260508110052 52 0.0 2.0 0.00 0.01 0.00 84 1021.8
20260508105030 51 113 0.0 2.0 0.00 0.01 0.00 83 1021.8
20260508104028 51 113 1.0 4.0 0.00 0.01 0.00 83 1021.8
20260508103026 51 0.0 2.0 0.00 0.01 0.00 83 1021.7
20260508102024 52 248 1.0 2.0 0.00 0.01 0.00 82 1021.7
20260508101022 52 113 0.0 2.0 0.00 0.01 0.00 82 1021.8
20260508100020 51 113 0.0 2.0 0.00 0.01 0.00 81 1021.7
20260508095018 52 158 0.0 2.0 0.00 0.02 0.00 84 1021.8
20260508094016 52 0.0 2.0 0.00 0.02 0.00 84 1021.9
20260508093114 51 113 1.0 2.0 0.00 0.02 0.00 83 1021.8
20260508092112 51 129 0.0 2.0 0.00 0.02 0.00 85 1021.8
20260508091130 51 113 0.0 2.0 0.00 0.02 0.00 86 1021.8
20260508090108 51 126 1.0 2.0 0.00 0.02 0.00 86 1021.7
20260508085106 51 68 0.0 2.0 0.00 0.02 0.00 88 1021.7
20260508084104 51 66 0.0 2.0 0.00 0.02 0.00 87 1021.7
20260508083102 51 113 0.0 2.0 0.00 0.02 0.00 86 1021.7
20260508082100 51 139 0.0 2.0 0.00 0.02 0.00 86 1021.7
20260508081058 50 113 0.0 2.0 0.00 0.02 0.00 86 1021.6
20260508080056 50 248 0.0 2.0 0.00 0.02 0.00 87 1021.6
20260508075054 51 124 0.0 2.0 0.00 0.02 0.00 89 1021.5
20260508074052 50 113 0.0 2.0 0.00 0.02 0.00 91 1021.6
20260508073050 49 259 0.0 2.0 0.00 0.02 0.00 91 1021.4
20260508072048 49 0.0 0.0 0.00 0.02 0.00 92 1021.3
20260508071046 49 0.0 0.0 0.00 0.02 0.00 93 1021.3
20260508070044 48 0.0 0.0 0.00 0.02 0.00 95 1021.2
20260508065042 47 0.0 0.0 0.00 0.02 0.00 97 1021.0
20260508064040 48 0.0 0.0 0.00 0.02 0.00 98 1021.0
20260508063038 47 0.0 0.0 0.00 0.02 0.00 98 1020.9
20260508062036 47 0.0 0.0 0.00 0.02 0.00 99 1020.8
20260508061034 47 0.0 0.0 0.00 0.02 0.00 99 1020.7
20260508060052 46 0.0 0.0 0.00 0.02 0.00 99 1020.6
20260508055120 46 0.0 0.0 0.00 0.02 0.00 99 1020.5
20260508054058 46 0.0 0.0 0.00 0.02 0.00 99 1020.5
20260508053056 46 0.0 0.0 0.00 0.02 0.00 99 1020.5
20260508052053 47 0.0 2.0 0.00 0.02 0.00 99 1020.5
20260508051052 46 0.0 0.0 0.00 0.02 0.00 99 1020.4
20260508050049 45 0.0 0.0 0.00 0.02 0.00 99 1020.3
20260508045108 45 0.0 0.0 0.00 0.02 0.00 99 1020.2
20260508044045 45 0.0 0.0 0.00 0.02 0.00 99 1020.1
20260508043043 45 0.0 0.0 0.00 0.02 0.00 99 1020.0
20260508042042 45 0.0 2.0 0.00 0.04 0.00 99 1020.0
20260508041040 45 0.0 0.0 0.00 0.04 0.00 99 1019.9
20260508040058 45 0.0 0.0 0.00 0.04 0.00 99 1020.0
20260508035036 45 0.0 0.0 0.00 0.04 0.00 99 1019.8
20260508034033 45 0.0 0.0 0.00 0.04 0.00 99 1019.9
20260508033031 45 0.0 0.0 0.00 0.04 0.00 99 1019.8
20260508032029 45 0.0 0.0 0.00 0.04 0.00 99 1019.8
20260508031027 45 0.0 0.0 0.00 0.04 0.00 99 1019.9
20260508030105 45 0.0 0.0 0.00 0.04 0.00 99 1019.9
20260508025023 45 0.0 0.0 0.00 0.04 0.00 99 1019.9
20260508024021 45 0.0 0.0 0.00 0.04 0.00 99 1020.2
20260508023019 45 0.0 0.0 0.00 0.04 0.00 99 1020.1
20260508022017 46 0.0 0.0 0.00 0.04 0.00 99 1020.1
20260508021015 46 0.0 0.0 0.00 0.04 0.00 99 1020.1
20260508020113 46 0.0 0.0 0.00 0.04 0.00 99 1020.2
20260508015152 46 0.0 0.0 0.00 0.04 0.00 99 1020.2
20260508014109 46 0.0 0.0 0.00 0.05 0.00 99 1020.2
20260508013107 46 0.0 0.0 0.00 0.05 0.00 99 1020.1
20260508012105 46 0.0 2.0 0.00 0.05 0.00 99 1020.1
20260508011103 46 0.0 2.0 0.00 0.05 0.00 99 1020.0
20260508010101 46 0.0 0.0 0.00 0.05 0.00 99 1020.1
20260508005059 46 0.0 0.0 0.00 0.05 0.00 99 1020.2
20260508004057 46 0.0 2.0 0.00 0.05 0.00 99 1020.0
20260508003055 46 0.0 0.0 0.00 0.05 0.00 99 1020.1
20260508002053 46 0.0 0.0 0.00 0.05 0.00 99 1020.0
20260508001051 46 0.0 0.0 0.00 0.05 0.00 99 1020.2
20260508000049 46 0.0 0.0 0.00 0.05 0.00 99 1020.2
20260507235047 46 0.0 0.0 0.00 0.06 0.00 99 1020.3
20260507234045 46 0.0 0.0 0.00 0.06 0.00 99 1020.2
20260507233043 46 0.0 0.0 0.00 0.07 0.00 99 1020.2
20260507232041 46 0.0 0.0 0.00 0.07 0.00 99 1020.1
20260507231039 46 0.0 0.0 0.00 0.07 0.00 99 1020.1
20260507230037 46 0.0 2.0 0.00 0.07 0.00 99 1020.0
20260507225055 46 248 0.0 2.0 0.00 0.07 0.00 99 1020.0
20260507224033 46 0.0 0.0 0.00 0.08 0.00 99 1020.0
20260507223031 46 0.0 0.0 0.00 0.08 0.00 99 1020.0
20260507222049 46 0.0 0.0 0.00 0.08 0.00 99 1020.1
20260507221027 46 0.0 0.0 0.00 0.09 0.00 99 1020.0
20260507220025 46 0.0 0.0 0.00 0.11 0.00 99 1020.0
20260507215023 46 0.0 0.0 0.00 0.11 0.11 99 1019.9
20260507214021 46 0.0 0.0 0.00 0.11 0.11 99 1019.9
20260507213039 46 0.0 0.0 0.00 0.11 0.11 99 1019.9
20260507212016 46 0.0 0.0 0.00 0.11 0.11 99 1019.9
20260507211015 46 0.0 0.0 0.00 0.11 0.11 98 1019.9
20260507210113 46 0.0 0.0 0.00 0.12 0.11 98 1019.7
20260507205111 46 0.0 0.0 0.00 0.12 0.11 98 1019.8
20260507204108 46 0.0 0.0 0.00 0.12 0.11 98 1019.8
20260507203106 46 0.0 0.0 0.00 0.12 0.11 98 1019.8
20260507202104 46 0.0 0.0 0.00 0.12 0.11 98 1019.7
20260507201102 46 0.0 0.0 0.00 0.13 0.11 98 1019.6
20260507200100 46 0.0 0.0 0.00 0.13 0.11 98 1019.5
20260507195059 46 0.0 0.0 0.00 0.13 0.11 98 1019.5
20260507194057 46 0.0 0.0 0.00 0.13 0.11 98 1019.5
20260507193055 46 0.0 2.0 0.00 0.13 0.11 98 1019.4
20260507192052 46 248 0.0 2.0 0.00 0.14 0.11 98 1019.3
20260507191050 46 242 1.0 2.0 0.00 0.14 0.11 98 1019.3
20260507190048 46 248 0.0 2.0 0.00 0.14 0.11 98 1019.3
20260507185106 46 248 1.0 2.0 0.00 0.14 0.11 98 1019.1
20260507184104 46 0.0 0.0 0.00 0.14 0.11 98 1019.2
20260507183102 46 0.0 0.0 0.00 0.14 0.11 98 1019.1
20260507182040 46 0.0 0.0 0.00 0.14 0.11 98 1019.0
20260507181038 46 0.0 0.0 0.00 0.14 0.11 98 1018.9
20260507180036 46 0.0 0.0 0.00 0.14 0.11 97 1018.9